Location: Camaret
(48.2753°N, 4.5961°W)
Time: 16:29:26
(UTC+00:00)

N. Korean satellite - Visible Passes

Search period start: 22 January 2021 00:00
Search period end: 01 February 2021 00:00
Orbit: 452 x 502 km, 97.2° (Epoch: 21 January)

Date Brightness Start Highest point End Pass type
(mag) Time Alt. Az. Time Alt. Az. Time Alt. Az.
22 Jan 6.3 06:05:19 10° N 06:08:48 68° WNW 06:12:13 10° SSW visible
23 Jan 7.1 05:38:47 10° NNE 05:42:13 54° E 05:45:35 10° S visible
23 Jan 8.3 07:13:31 10° NW 07:15:06 13° WNW 07:16:40 10° W visible
23 Jan 9.7 17:51:09 10° SW 17:53:47 18° W 17:56:24 10° NW visible
24 Jan 8.7 05:12:33 10° NE 05:15:31 26° E 05:18:27 10° SSE visible
24 Jan 7.6 06:45:58 10° NNW 06:48:45 23° WNW 06:51:31 10° WSW visible
25 Jan 9.7 04:46:58 10° ENE 04:48:43 13° E 04:50:28 10° ESE visible
25 Jan 6.7 06:18:59 10° N 06:22:19 45° WNW 06:25:36 10° SW visible
26 Jan 6.4 05:52:17 10° NNE 05:55:46 83° ESE 05:59:11 10° S visible
26 Jan 10.0 18:05:41 10° WSW 18:07:27 13° W 18:09:15 10° WNW visible
27 Jan 7.9 05:25:52 10° NNE 05:29:07 37° E 05:32:19 10° SSE visible
27 Jan 8.0 06:59:54 10° NNW 07:02:10 17° WNW 07:04:26 10° WSW visible
27 Jan 9.3 17:37:37 10° SSW 17:40:39 25° W 17:43:42 10° NW visible
28 Jan 9.2 04:59:52 10° NE 05:02:22 19° E 05:04:50 10° SE visible
28 Jan 7.2 06:32:41 10° N 06:35:47 31° WNW 06:38:50 10° SW visible
29 Jan 6.3 06:05:50 10° N 06:09:17 66° WNW 06:12:39 10° SSW visible
30 Jan 7.1 05:39:16 10° NNE 05:42:40 55° E 05:46:01 10° S visible
30 Jan 8.4 07:14:07 10° NW 07:15:32 12° WNW 07:16:57 10° W visible
30 Jan 9.7 17:51:45 10° SW 17:54:17 18° W 17:56:47 10° NW visible
31 Jan 8.6 05:13:00 10° NE 05:15:58 26° E 05:18:52 10° SSE visible
31 Jan 7.6 06:46:27 10° NNW 06:49:10 22° WNW 06:51:53 10° WSW visible
